Home   Weather   Warren   Past weeks
Flag for USA

Past Weather in Warren, Michigan, USA — Yesterday and Last 2 Weeks

Now
46 °F

Overcast.


Feels Like: 39 °F
Forecast: 52 / 44 °F
Wind: 17 mph from Northwest

Location: Detroit City Airport

Current Time: Oct 17, 2019 at 5:50:02 am

Latest Report: Oct 17, 2019 at 5:01 am


Visibility: 10 mi

Pressure: 29.80 "Hg

Humidity: 63%

Dew Point: 34 °F

Location of WarrenLocation

Past Weather in Warren — Graph

°F

Warren Temperature Yesterday

Maximum temperature yesterday: 63 °F (at 12:53 am)
Minimum temperature yesterday: 46 °F (at 9:53 pm)
Average temperature yesterday: 51 °F

High & Low Weather Summary for the Past Weeks

 TemperatureHumidityPressure
High72 °F (Oct 2, 3:53 am)100% (Oct 2, 6:24 am)30.40 "Hg (Oct 2, 6:24 am)
Low36 °F (Oct 15, 5:53 am)28% (Oct 13, 4:53 pm)29.58 "Hg (Oct 16, 2:53 pm)
Average55 °F73%30.03 "Hg
* Reported Oct 2 3:53 am — Oct 17 3:53 am, Warren. Weather by CustomWeather, © 2019

Note: Actual official high and low records may vary slightly from our data, if they occured in-between our weather recording intervals... More about our weather records

Advertising

Warren Weather History for the Previous 24 Hours

Scroll right to see more
 ConditionsComfort  
Time TempWeatherWind HumidityBarometerVisibility
3:53 am
Thu, Oct 17
46 °FMostly cloudy.16 mph66%29.79 "Hg10 mi
2:53 am47 °FOvercast.16 mph64%29.78 "Hg10 mi
2:38 am47 °FMostly cloudy.13 mph66%29.77 "Hg10 mi
1:53 am47 °FMostly cloudy.17 mph66%29.78 "Hg10 mi
12:53 am47 °FOvercast.14 mph69%29.77 "Hg10 mi
11:53 pm
Wed, Oct 16
47 °FMostly cloudy.14 mph74%29.76 "Hg10 mi
11:24 pm46 °FOvercast.15 mph77%29.75 "Hg10 mi
11:03 pm46 °FOvercast.12 mph79%29.75 "Hg10 mi
10:36 pm46 °FLight rain. Overcast.12 mph79%29.75 "Hg10 mi
10:07 pm46 °FMostly cloudy.10 mph77%29.75 "Hg10 mi
9:53 pm46 °FLight rain. Mostly cloudy.16 mph77%29.75 "Hg9 mi
9:36 pm47 °FMostly cloudy.8 mph71%29.74 "Hg10 mi
9:11 pm47 °FMostly cloudy.15 mph69%29.74 "Hg10 mi
8:53 pm47 °FMostly cloudy.17 mph69%29.73 "Hg10 mi
7:53 pm49 °FMostly cloudy.13 mph66%29.70 "Hg10 mi
6:53 pm49 °FOvercast.14 mph66%29.68 "Hg10 mi
6:37 pm49 °FCloudy.15 mph66%29.67 "Hg10 mi
5:53 pm50 °FOvercast.9 mph68%29.65 "Hg10 mi
4:53 pm50 °FOvercast.13 mph71%29.63 "Hg10 mi
3:53 pm49 °FLight rain. Mostly cloudy.15 mph93%29.60 "Hg10 mi
3:37 pm50 °FLight rain. Mostly cloudy.14 mph93%29.59 "Hg7 mi
3:11 pm50 °FMostly cloudy.15 mph93%29.59 "Hg8 mi
2:53 pm50 °FMostly cloudy.16 mph93%29.58 "Hg10 mi
2:19 pm49 °FLight rain. Fog.13 mph97%29.58 "Hg6 mi
2:10 pm49 °FLight rain. Fog.13 mph100%29.58 "Hg4 mi
1:53 pm48 °FFog.12 mph100%29.58 "Hg4 mi
12:53 pm48 °FFog.14 mph93%29.58 "Hg6 mi
11:53 am48 °FLight rain. Overcast.12 mph80%29.59 "Hg5 mi
10:53 am48 °FOvercast.13 mph71%29.61 "Hg10 mi
10:08 am48 °FMostly cloudy.12 mph66%29.60 "Hg10 mi
9:53 am49 °FOvercast.13 mph64%29.60 "Hg10 mi
8:53 am48 °FOvercast.17 mph66%29.60 "Hg10 mi
7:53 am49 °FOvercast.12 mph74%29.60 "Hg10 mi
6:53 am50 °FOvercast.7 mph74%29.63 "Hg10 mi
5:53 am50 °FOvercast.7 mph80%29.62 "Hg10 mi
5:18 am51 °FMostly cloudy.12 mph89%29.63 "Hg10 mi
Weather by CustomWeather, © 2019

See weather overview